"2016-02-25 00:00:00",1403931,10.78,139.8,6.347,1.452,10.53,102.0339,4.49,5.772,22.24,0,110,13.2,5.26,101.8
"2016-02-25 00:00:30",1403932,10.62,137.4,6.754,1.357,10.41,102.0331,4.488,5.736,21.71,0,110,13.19,5.26,99.4
"2016-02-25 00:01:00",1403933,9.95,141.9,7.08,1.421,10.79,102.0263,4.47,5.704,22.04,0,110,13.19,5.24,103.9
"2016-02-25 00:01:30",1403934,10.39,142.9,6.696,1.242,10.74,102.0164,4.445,5.742,22.43,0,110,13.2,5.21,104.9
"2016-02-25 00:02:00",1403935,10.67,142.4,6.705,1.326,10.71,102.0116,4.433,5.748,22.46,0,110,13.2,5.20,104.4
"2016-02-25 00:02:30",1403936,10.54,142.1,6.24,1.219,10.43,102.002,4.408,5.714,22.49,0,110,13.2,5.18,104.1
"2016-02-25 00:03:00",1403937,10.38,140.2,7.107,1.277,10.4,102,4.403,5.708,22.3,0,110,13.21,5.17,102.2
"2016-02-25 00:03:30",1403938,10.16,137.2,7.324,1.288,10.3,101.9879,4.372,5.696,22.27,0,110,13.21,5.14,99.2
"2016-02-25 00:04:00",1403939,10.22,138.3,6.83,1.389,10.6,101.9814,4.356,5.695,22.57,0,110,13.21,5.12,100.3
"2016-02-25 00:04:30",1403940,10.77,136.7,6.011,1.281,10.28,101.9733,4.335,5.679,22.43,0,110,13.21,5.10,98.7
"2016-02-25 00:05:00",1403941,10.59,137.8,6.644,1.28,10.41,101.9748,4.339,5.667,22.35,0,110,13.21,5.11,99.8
"2016-02-25 00:05:30",1403942,10.37,139,6.451,1.205,10.23,101.962,4.306,5.642,22.34,0,110,13.21,5.07,101.0
"2016-02-25 00:06:00",1403943,10.29,137.7,6.645,1.254,10.43,101.9607,4.303,5.596,22.36,0,110,13.21,5.07,99.7
"2016-02-25 00:06:30",1403944,10.43,137,6.54,1.306,10.32,101.9542,4.286,5.6,21.94,0,110,13.21,5.05,99.0
"2016-02-25 00:07:00",1403945,10.68,136.9,6.632,1.285,10.22,101.9475,4.269,5.602,21.69,0,110,13.21,5.04,98.9
"2016-02-25 00:07:30",1403946,10.88,135.1,6.468,1.229,10.62,101.9469,4.268,5.576,21.63,0,110,13.21,5.03,97.1
"2016-02-25 00:08:00",1403947,11.21,134.9,6.178,1.247,9.94,101.9463,4.266,5.564,21.55,0,110,13.21,5.03,96.9
"2016-02-25 00:08:30",1403948,11.27,136.1,7.3,1.226,10.32,101.9396,4.249,5.557,21.6,0,110,13.21,5.02,98.1
"2016-02-25 00:09:00",1403949,11.17,133.1,6.59,1.303,10.72,101.9348,4.237,5.529,21.42,0,110,13.21,5.00,95.1
"2016-02-25 00:09:30",1403950,10.95,133.2,6.466,1.323,10.5,101.9354,4.238,5.538,21.18,0,110,13.21,5.01,95.2
"2016-02-25 00:10:00",1403951,10.51,134,6.142,1.226,10.29,101.9369,4.242,5.507,21.12,0,110.1,13.21,5.01,96.0
"2016-02-25 00:10:30",1403952,10.37,136.1,7.075,1.275,10.44,101.9332,4.233,5.511,21.31,0,110,13.22,5.00,98.1
"2016-02-25 00:11:00",1403953,10.95,138.1,6.386,1.244,10.47,101.9276,4.218,5.503,21.31,0,110,13.21,4.99,100.1
"2016-02-25 00:11:30",1403954,10.9,136.7,6.732,1.188,10.47,101.9245,4.21,5.503,21.91,0,110,13.21,4.98,98.7
"2016-02-25 00:12:00",1403955,10.79,136.8,6.559,1.348,10.15,101.9233,4.207,5.512,22.11,0,110,13.22,4.97,98.8
"2016-02-25 00:12:30",1403956,11.31,134.8,7.003,1.252,10.17,101.9262,4.215,5.489,22,0,110,13.21,4.98,96.8
"2016-02-25 00:13:00",1403957,11.21,137,6.791,1.325,10.33,101.926,4.214,5.463,22.48,0,110,13.22,4.98,99.0
"2016-02-25 00:13:30",1403958,11.41,135.9,6.972,1.32,10.23,101.9175,4.193,5.445,22.78,0,110,13.21,4.96,97.9
"2016-02-25 00:14:00",1403959,11.39,136.6,5.955,1.327,10.38,101.9102,4.174,5.493,23.21,0,110,13.21,4.94,98.6
"2016-02-25 00:14:30",1403960,11.91,137.4,5.938,1.148,10.12,101.9037,4.157,5.47,23.33,0,110,13.21,4.92,99.4
"2016-02-25 00:15:00",1403961,11.56,135.4,6.645,1.245,9.74,101.8989,4.145,5.417,23.26,0,110,13.21,4.91,97.4
"2016-02-25 00:15:30",1403962,11.89,137.4,6.861,1.223,10.17,101.8927,4.129,5.403,22.94,0,109.9,13.21,4.90,99.4
"2016-02-25 00:16:00",1403963,12.05,135.8,6.689,1.239,10.17,101.8766,4.088,5.405,22.84,0,110,13.21,4.85,97.8
"2016-02-25 00:16:30",1403964,12,135.8,5.985,1.26,10.2,101.8656,4.06,5.372,22.95,0,110,13.21,4.83,97.8
"2016-02-25 00:17:00",1403965,11.66,135.5,6.012,1.295,10.34,101.8625,4.052,5.367,22.7,0,110,13.21,4.82,97.5
"2016-02-25 00:17:30",1403966,12.23,132.7,6.819,1.275,10.14,101.8495,4.019,5.37,22.81,0,109.9,13.21,4.79,94.7
"2016-02-25 00:18:00",1403967,12.27,132.8,6.412,1.18,9.9,101.8399,3.994,5.306,23.02,0,109.9,13.21,4.76,94.8
"2016-02-25 00:18:30",1403968,12.21,132.8,6.61,1.249,10.08,101.83,3.969,5.279,23.13,0,109.9,13.22,4.74,94.8
"2016-02-25 00:19:00",1403969,12.09,131.3,6.406,1.287,10.02,101.8159,3.933,5.254,23.14,0,109.9,13.22,4.70,93.3
"2016-02-25 00:19:30",1403970,11.79,131.8,7.141,1.293,10.37,101.8023,3.898,5.251,23.23,0,109.9,13.22,4.66,93.8
"2016-02-25 00:20:00",1403971,12.36,130.2,6.083,1.24,10.08,101.7972,3.885,5.26,23.23,0,109.9,13.22,4.65,92.2
"2016-02-25 00:20:30",1403972,12.09,129.7,6.396,1.301,10.34,101.7955,3.881,5.198,23.08,0,109.9,13.22,4.65,91.7
"2016-02-25 00:21:00",1403973,12.06,127.7,6.415,1.245,9.99,101.7814,3.845,5.18,23.15,0,109.9,13.22,4.61,89.7
"2016-02-25 00:21:30",1403974,11.96,126.5,6.673,1.239,10.46,101.7709,3.818,5.143,22.71,0,109.9,13.22,4.58,88.5
"2016-02-25 00:22:00",1403975,12.03,127.7,6.76,1.447,10.24,101.7633,3.799,5.123,22.77,0,109.9,13.22,4.56,89.7
"2016-02-25 00:22:30",1403976,11.92,128.8,6.608,1.261,10.01,101.7633,3.799,5.134,23.18,0,109.9,13.22,4.56,90.8
"2016-02-25 00:23:00",1403977,12.21,126.9,6.79,1.276,10.32,101.7633,3.799,5.093,23.42,0,110,13.22,4.56,88.9
"2016-02-25 00:23:30",1403978,12.59,126.9,6.49,1.408,9.97,101.7571,3.783,5.089,23.34,0,109.9,13.22,4.55,88.9
"2016-02-25 00:24:00",1403979,13.03,127.5,6.515,1.237,10.1,101.7463,3.756,5.075,23.65,0,109.9,13.22,4.52,89.5
"2016-02-25 00:24:30",1403980,12.71,129.8,6.302,1.258,10.26,101.7334,3.722,5.045,23.9,0,109.9,13.22,4.49,91.8
"2016-02-25 00:25:00",1403981,12.49,132.9,5.976,1.263,9.95,101.7294,3.712,5.037,24.24,0,109.9,13.23,4.48,94.9
"2016-02-25 00:25:30",1403982,12.63,132.5,6.408,1.248,9.79,101.7288,3.711,5.016,24.39,0,109.9,13.23,4.48,94.5
"2016-02-25 00:26:00",1403983,12.23,132.1,6.75,1.347,9.99,101.7161,3.678,5.004,24.48,0,109.9,13.23,4.44,94.1
"2016-02-25 00:26:30",1403984,12.12,134.1,6.268,1.262,10.38,101.7003,3.638,4.994,24.58,0,109.9,13.23,4.40,96.1
"2016-02-25 00:27:00",1403985,12.34,133,6.585,1.249,10.36,101.6941,3.622,4.978,24.54,0,109.9,13.23,4.39,95.0
"2016-02-25 00:27:30",1403986,12.11,131.5,6.436,1.243,9.89,101.6788,3.583,4.954,24.43,0,109.9,13.23,4.35,93.5
"2016-02-25 00:28:00",1403987,12.48,131.3,6.564,1.174,10.03,101.663,3.543,4.908,24.56,0,109.9,13.23,4.31,93.3
"2016-02-25 00:28:30",1403988,12.07,131.6,6.448,1.333,10.12,101.6582,3.531,4.881,24.69,0,109.9,13.23,4.29,93.6
"2016-02-25 00:29:00",1403989,11.75,130.2,6.693,1.245,10.08,101.6339,3.468,4.835,24.68,0,109.9,13.23,4.23,92.2
"2016-02-25 00:29:30",1403990,11.87,130,6.18,1.199,10.22,101.6282,3.454,4.853,24.79,0,109.9,13.23,4.22,92.0
"2016-02-25 00:30:00",1403991,11.78,127.7,6.281,1.21,10.22,101.6226,3.44,4.821,24.72,0,109.9,13.23,4.20,89.7
"2016-02-25 00:30:30",1403992,11.44,126.8,6.793,1.287,9.61,101.6014,3.386,4.753,24.85,0,109.9,13.23,4.15,88.8
"2016-02-25 00:31:00",1403993,11.7,128.7,7.098,1.313,10.02,101.5963,3.373,4.738,24.74,0,109.9,13.23,4.14,90.7
"2016-02-25 00:31:30",1403994,12.17,128.5,6.138,1.212,10.07,101.5978,3.376,4.733,24.71,0,109.9,13.23,4.14,90.5
"2016-02-25 00:32:00",1403995,12.51,128.4,6.454,1.243,9.99,101.5829,3.338,4.695,24.57,0,109.9,13.23,4.10,90.4
"2016-02-25 00:32:30",1403996,12.8,127.3,6.149,1.264,10.02,101.5736,3.315,4.685,24.55,0,109.9,13.23,4.08,89.3
"2016-02-25 00:33:00",1403997,12.62,126.8,7.235,1.242,9.97,101.5748,3.318,4.652,24.65,0,109.9,13.23,4.08,88.8
"2016-02-25 00:33:30",1403998,12.72,128.6,6.095,1.182,9.69,101.5655,3.294,4.646,24.72,0,109.9,13.23,4.06,90.6
"2016-02-25 00:34:00",1403999,12.49,127.6,6.594,1.184,9.82,101.5522,3.26,4.595,24.73,0,109.9,13.23,4.02,89.6
"2016-02-25 00:34:30",1404000,12.38,127.2,6.91,1.293,9.79,101.548,3.249,4.558,24.84,0,109.9,13.23,4.01,89.2
"2016-02-25 00:35:00",1404001,12.74,128.7,6.645,1.203,10.06,101.5478,3.249,4.557,24.91,0,109.9,13.23,4.01,90.7
"2016-02-25 00:35:30",1404002,12.55,129.2,6.296,1.271,9.74,101.5345,3.215,4.548,24.99,0,109.9,13.23,3.98,91.2
"2016-02-25 00:36:00",1404003,12.45,129.9,6.543,1.319,10,101.5263,3.194,4.503,25.08,0,109.9,13.24,3.96,91.9
"2016-02-25 00:36:30",1404004,12.19,132.7,6.296,1.253,9.72,101.521,3.18,4.512,25.14,0,109.9,13.24,3.94,94.7
"2016-02-25 00:37:00",1404005,12.93,130.2,6.719,1.193,9.99,101.5193,3.176,4.467,25.15,0,109.9,13.24,3.94,92.2
"2016-02-25 00:37:30",1404006,12.34,132.4,6.899,1.355,10.02,101.5049,3.139,4.445,25.2,0,109.9,13.24,3.90,94.4
"2016-02-25 00:38:00",1404007,12.94,132.6,5.926,1.343,9.96,101.4928,3.108,4.461,25.32,0,109.9,13.24,3.87,94.6
"2016-02-25 00:38:30",1404008,12.86,130.9,6.235,1.216,10.05,101.4925,3.108,4.412,25.29,0,109.9,13.24,3.87,92.9
"2016-02-25 00:39:00",1404009,12.87,129.9,7.211,1.214,9.96,101.4914,3.105,4.385,25.32,0,109.9,13.24,3.87,91.9
"2016-02-25 00:39:30",1404010,12.99,130.8,6.681,1.28,10.02,101.4804,3.077,4.381,25.24,0,109.9,13.25,3.84,92.8
"2016-02-25 00:40:00",1404011,12.96,132.4,7.774,1.288,10.04,101.4716,3.054,4.367,25.39,0,109.9,13.25,3.82,94.4
"2016-02-25 00:40:30",1404012,12.49,133.2,6.13,1.5,9.85,101.4589,3.022,4.343,25.44,0,109.9,13.25,3.78,95.2
"2016-02-25 00:41:00",1404013,13.03,130.7,6.989,1.237,9.75,101.4586,3.021,4.324,25.34,0,109.9,13.25,3.78,92.7
"2016-02-25 00:41:30",1404014,12.97,129.7,6.75,1.373,9.81,101.4575,3.018,4.316,25.43,0,109.9,13.25,3.78,91.7
"2016-02-25 00:42:00",1404015,13.15,131.6,6.515,1.232,10.24,101.4467,2.991,4.287,25.48,0,109.9,13.25,3.75,93.6
"2016-02-25 00:42:30",1404016,13.07,130.9,6.858,1.352,10.18,101.44,2.974,4.301,25.47,0,109.9,13.25,3.74,92.9
"2016-02-25 00:43:00",1404017,12.75,131.6,6.316,1.188,9.77,101.4264,2.939,4.291,25.57,0,109.9,13.25,3.70,93.6
"2016-02-25 00:43:30",1404018,12.95,134.6,6.402,1.221,9.72,101.4247,2.935,4.233,25.7,0,109.9,13.25,3.70,96.6
"2016-02-25 00:44:00",1404019,12.53,129.7,6.192,1.226,9.97,101.4247,2.935,4.226,25.61,0,109.9,13.25,3.70,91.7
"2016-02-25 00:44:30",1404020,12.68,129.8,7.935,1.335,9.83,101.4216,2.927,4.209,25.68,0,109.9,13.25,3.69,91.8
"2016-02-25 00:45:00",1404021,12.57,128.9,6.643,1.476,9.93,101.4114,2.901,4.216,25.7,0,109.9,13.25,3.66,90.9
"2016-02-25 00:45:30",1404022,12.95,135.8,6.431,1.257,10.04,101.4063,2.888,4.226,25.95,0,109.9,13.26,3.65,97.8
"2016-02-25 00:46:00",1404023,11.94,129,6.663,1.283,9.63,101.3939,2.856,4.171,25.99,0,109.9,13.26,3.62,91.0
"2016-02-25 00:46:30",1404024,11.93,128.5,7.579,1.345,9.88,101.3922,2.852,4.155,25.88,0,109.9,13.26,3.61,90.5
"2016-02-25 00:47:00",1404025,12.18,126.8,6.765,1.397,10.03,101.3931,2.854,4.167,25.8,0,109.8,13.25,3.62,88.8
"2016-02-25 00:47:30",1404026,12.64,129,6.645,1.339,9.93,101.3939,2.856,4.149,25.81,0,109.8,13.25,3.62,91.0
"2016-02-25 00:48:00",1404027,12.6,123.2,6.413,1.236,9.98,101.3906,2.847,4.118,25.83,0,109.8,13.25,3.61,85.2
"2016-02-25 00:48:30",1404028,12.16,127.7,6.549,1.293,9.51,101.3853,2.834,4.156,26.02,0,109.8,13.25,3.60,89.7
"2016-02-25 00:49:00",1404029,12.06,128.8,6.895,1.281,9.73,101.3782,2.816,4.074,26.08,0,109.8,13.25,3.58,90.8
"2016-02-25 00:49:30",1404030,11.88,127.5,7.266,1.24,9.8,101.3735,2.804,4.108,26.17,0,109.8,13.25,3.57,89.5
"2016-02-25 00:50:00",1404031,11.95,129.4,6.564,1.344,9.52,101.3749,2.807,4.103,26.27,0,109.8,13.25,3.57,91.4
"2016-02-25 00:50:30",1404032,11.82,129.8,6.912,1.318,9.48,101.3752,2.808,4.095,26.32,0,109.8,13.25,3.57,91.8
"2016-02-25 00:51:00",1404033,11.71,128,6.788,1.386,9.54,101.3755,2.809,4.083,26.38,0,109.8,13.25,3.57,90.0
"2016-02-25 00:51:30",1404034,12.05,130.9,7.888,1.32,9.69,101.3729,2.802,4.044,26.44,0,109.8,13.25,3.56,92.9
"2016-02-25 00:52:00",1404035,12.4,130.8,5.932,1.272,9.62,101.3608,2.771,4.086,26.21,0,109.8,13.26,3.53,92.8
"2016-02-25 00:52:30",1404036,13.23,127.7,6.223,1.218,9.78,101.3554,2.758,4.039,25.9,0,109.8,13.26,3.52,89.7
"2016-02-25 00:53:00",1404037,12.47,128.7,6.625,1.222,9.78,101.3563,2.76,4.026,25.98,0,109.8,13.26,3.52,90.7
"2016-02-25 00:53:30",1404038,12.61,129.8,6.8,1.253,9.64,101.3503,2.745,4.041,26.06,0,109.8,13.26,3.51,91.8
"2016-02-25 00:54:00",1404039,12.27,132.2,8.48,1.309,9.45,101.3473,2.737,4.017,26.26,0,109.8,13.26,3.50,94.2
"2016-02-25 00:54:30",1404040,12.39,125.7,7.713,1.325,9.67,101.3458,2.733,3.992,26.41,0,109.8,13.26,3.49,87.7
"2016-02-25 00:55:00",1404041,12.47,126.9,6.382,1.427,9.77,101.3467,2.736,4.014,26.44,0,109.8,13.26,3.50,88.9
"2016-02-25 00:55:30",1404042,12.56,126.9,6.977,1.352,9.85,101.3371,2.711,4.003,26.49,0,109.8,13.26,3.47,88.9
"2016-02-25 00:56:00",1404043,12.01,128.2,6.583,1.353,9.47,101.3326,2.7,3.983,26.49,0,109.8,13.26,3.46,90.2
"2016-02-25 00:56:30",1404044,12.38,130.8,8.27,1.463,9.27,101.3236,2.676,3.956,26.61,0,109.8,13.26,3.44,92.8
"2016-02-25 00:57:00",1404045,12.21,130.1,6.92,1.463,9.35,101.3182,2.663,3.94,26.8,0,109.8,13.26,3.42,92.1
"2016-02-25 00:57:30",1404046,13.04,128.4,7.134,1.314,9.83,101.3185,2.664,3.93,26.73,0,109.8,13.26,3.42,90.4
"2016-02-25 00:58:00",1404047,11.95,129.7,7.184,1.308,9.85,101.3214,2.671,3.943,26.79,0,109.8,13.26,3.43,91.7
"2016-02-25 00:58:30",1404048,12.57,127.2,6.621,1.318,9.3,101.3188,2.664,3.935,26.87,0,109.8,13.26,3.43,89.2
"2016-02-25 00:59:00",1404049,12.82,129.4,7.546,1.277,9.21,101.3078,2.636,3.9,26.9,0,109.8,13.26,3.40,91.4
"2016-02-25 00:59:30",1404050,12.68,124.4,6.2,1.298,9.77,101.3041,2.627,3.883,26.88,0,109.8,13.26,3.39,86.4
"2016-02-25 01:00:00",1404051,12.47,124.6,7.204,1.372,9.65,101.2928,2.598,3.882,26.89,0,109.8,13.27,3.36,86.6
"2016-02-25 01:00:30",1404052,12.65,126,7.514,1.248,9.62,101.2897,2.59,3.883,26.96,0,109.8,13.27,3.35,88.0
"2016-02-25 01:01:00",1404053,12,129.2,6.424,1.251,9.79,101.2894,2.589,3.886,27.03,0,109.8,13.27,3.35,91.2
"2016-02-25 01:01:30",1404054,12.92,127.4,6.909,1.334,9.14,101.2894,2.589,3.86,27.04,0,109.8,13.27,3.35,89.4
"2016-02-25 01:02:00",1404055,12.1,131.3,7.456,1.366,9.5,101.2894,2.589,3.819,27.2,0,109.8,13.27,3.35,93.3
"2016-02-25 01:02:30",1404056,12.5,129.4,7.154,1.244,9.66,101.288,2.586,3.841,27.26,0,109.8,13.27,3.35,91.4
"2016-02-25 01:03:00",1404057,11.86,128.6,7.266,1.357,9.45,101.2784,2.561,3.84,27.37,0,109.8,13.27,3.32,90.6
"2016-02-25 01:03:30",1404058,12.71,127.5,6.638,1.276,9.6,101.2632,2.522,3.826,27.39,0,109.8,13.26,3.28,89.5
"2016-02-25 01:04:00",1404059,12.32,128.2,6.623,1.36,9.3,101.2555,2.503,3.835,27.36,0,109.8,13.26,3.26,90.2
"2016-02-25 01:04:30",1404060,12.23,125.4,6.809,1.302,9.66,101.2555,2.503,3.808,27.28,0,109.8,13.26,3.26,87.4
"2016-02-25 01:05:00",1404061,12.88,124.7,7.416,1.382,9.75,101.2555,2.503,3.797,27.21,0,109.8,13.26,3.26,86.7
"2016-02-25 01:05:30",1404062,12.74,124.7,6.857,1.303,9.38,101.2558,2.504,3.799,27.31,0,109.8,13.26,3.26,86.7
"2016-02-25 01:06:00",1404063,12.61,127.3,6.443,1.246,9.32,101.2581,2.509,3.775,27.36,0,109.8,13.26,3.27,89.3
"2016-02-25 01:06:30",1404064,12.48,127.3,6.419,1.305,9.66,101.2556,2.503,3.757,27.39,0,109.8,13.26,3.26,89.3
"2016-02-25 01:07:00",1404065,12.4,126.3,6.7,1.671,9.45,101.2499,2.489,3.769,27.3,0,109.8,13.26,3.25,88.3
"2016-02-25 01:07:30",1404066,12.54,126.8,7.392,1.232,9.63,101.248,2.484,3.754,27.38,0,109.8,13.26,3.24,88.8
"2016-02-25 01:08:00",1404067,12.44,124.5,6.481,1.303,9.51,101.2494,2.487,3.778,27.46,0,109.8,13.26,3.25,86.5
"2016-02-25 01:08:30",1404068,12.12,124.5,7.671,1.322,8.98,101.2401,2.463,3.713,27.41,0,109.8,13.27,3.22,86.5
"2016-02-25 01:09:00",1404069,11.49,127.1,6.542,1.24,9.43,101.2393,2.461,3.727,27.48,0,109.8,13.27,3.22,89.1
"2016-02-25 01:09:30",1404070,11.69,131.8,6.877,1.27,9.45,101.2385,2.459,3.734,27.53,0,109.7,13.28,3.22,93.8
"2016-02-25 01:10:00",1404071,12.1,132.1,7.053,1.345,9.52,101.2379,2.458,3.727,27.62,0,109.8,13.27,3.22,94.1
"2016-02-25 01:10:30",1404072,11.83,137.9,7.244,1.386,9.3,101.2388,2.46,3.718,27.88,0,109.8,13.27,3.22,99.9
"2016-02-25 01:11:00",1404073,11.53,140.7,7.893,1.369,9.03,101.2365,2.454,3.692,28,0,109.8,13.27,3.21,102.7
"2016-02-25 01:11:30",1404074,10.97,145.2,7.405,1.204,9.23,101.228,2.433,3.682,28.09,0,109.8,13.28,3.19,107.2
"2016-02-25 01:12:00",1404075,10.85,144.1,9.81,1.245,9.49,101.2238,2.422,3.684,28.23,0,109.8,13.28,3.18,106.1
"2016-02-25 01:12:30",1404076,10.98,136.5,6.85,1.421,9.12,101.2133,2.395,3.698,28.27,0,109.8,13.28,3.16,98.5
"2016-02-25 01:13:00",1404077,11.13,141.6,6.527,1.243,9.46,101.21,2.387,3.687,28.33,0,109.8,13.28,3.15,103.6
"2016-02-25 01:13:30",1404078,10.88,131.8,6.73,1.293,9.2,101.2123,2.392,3.663,28.24,0,109.8,13.28,3.15,93.8
"2016-02-25 01:14:00",1404079,11.43,136.7,8.75,1.379,9.1,101.2057,2.376,3.647,28.16,0,109.8,13.28,3.14,98.7
"2016-02-25 01:14:30",1404080,10.63,140.5,7.669,1.503,9.41,101.1857,2.325,3.621,28.28,0,109.8,13.28,3.08,102.5
"2016-02-25 01:15:00",1404081,10.09,139.5,7.182,1.386,9.09,101.1795,2.309,3.626,28.33,0,109.8,13.28,3.07,101.5
"2016-02-25 01:15:30",1404082,10.15,142,8.48,1.497,8.73,101.1795,2.309,3.607,28.39,0,109.8,13.28,3.07,104.0
"2016-02-25 01:16:00",1404083,9.21,139.7,8.93,1.27,8.47,101.1747,2.296,3.588,28.72,0,109.8,13.28,3.06,101.7
"2016-02-25 01:16:30",1404084,8.9,142.8,8.39,1.349,8.55,101.1512,2.237,3.582,29.03,0,109.8,13.28,3.00,104.8
"2016-02-25 01:17:00",1404085,10.74,128.7,7.862,1.4,8.51,101.1467,2.225,3.544,28.81,0,109.8,13.28,2.98,90.7
"2016-02-25 01:17:30",1404086,10.01,129,7.434,1.362,8.97,101.1345,2.194,3.519,28.68,0,109.8,13.28,2.95,91.0
"2016-02-25 01:18:00",1404087,9.82,132.4,6.763,1.325,9.04,101.1229,2.164,3.499,28.65,0,109.8,13.28,2.92,94.4
"2016-02-25 01:18:30",1404088,11.21,128.6,6.704,1.27,9,101.1156,2.146,3.488,28.6,0,109.8,13.28,2.91,90.6
"2016-02-25 01:19:00",1404089,11.29,133.2,7.772,1.205,8.83,101.115,2.144,3.459,28.74,0,109.9,13.28,2.90,95.2
"2016-02-25 01:19:30",1404090,10.65,139.4,6.989,1.46,8.76,101.104,2.116,3.45,28.94,0,109.8,13.28,2.88,101.4
"2016-02-25 01:20:00",1404091,12.01,127.8,6.868,1.334,8.97,101.0969,2.098,3.426,28.95,0,109.8,13.28,2.86,89.8
"2016-02-25 01:20:30",1404092,11.35,128.9,8.19,1.272,9.13,101.0865,2.071,3.403,29.02,0,109.8,13.28,2.83,90.9
"2016-02-25 01:21:00",1404093,11.76,129,7.93,1.296,8.96,101.0862,2.071,3.397,29.06,0,109.8,13.27,2.83,91.0
"2016-02-25 01:21:30",1404094,11.95,122.5,7.085,1.246,8.97,101.0862,2.071,3.361,29.07,0,109.8,13.28,2.83,84.5
"2016-02-25 01:22:00",1404095,10.99,123.9,7.808,1.288,9.09,101.0862,2.071,3.361,29.12,0,109.8,13.28,2.83,85.9
"2016-02-25 01:22:30",1404096,10.98,128.1,7.621,1.365,9.07,101.0862,2.071,3.345,29.18,0,109.8,13.28,2.83,90.1
"2016-02-25 01:23:00",1404097,10.48,129.8,6.866,1.246,9.06,101.0854,2.069,3.359,29.18,0,109.8,13.28,2.83,91.8
"2016-02-25 01:23:30",1404098,10.95,131.7,6.175,1.196,8.93,101.0797,2.054,3.341,29.2,0,109.8,13.28,2.81,93.7
"2016-02-25 01:24:00",1404099,10.8,129.1,7.767,1.34,8.72,101.0758,2.044,3.31,29.17,0,109.8,13.28,2.80,91.1
"2016-02-25 01:24:30",1404100,11.05,132.2,6.988,1.209,8.75,101.0715,2.033,3.308,29.21,0,109.8,13.28,2.79,94.2
"2016-02-25 01:25:00",1404101,10.88,131.5,6.828,1.293,9.07,101.0675,2.023,3.307,29.26,0,109.8,13.28,2.78,93.5
"2016-02-25 01:25:30",1404102,11.87,133.6,6.841,1.214,8.97,101.0644,2.015,3.301,29.31,0,109.8,13.28,2.77,95.6
"2016-02-25 01:26:00",1404103,11.23,135.8,6.947,1.253,8.91,101.0653,2.017,3.323,29.37,0,109.8,13.28,2.78,97.8
"2016-02-25 01:26:30",1404104,11.35,134.3,7.686,1.249,8.57,101.0608,2.006,3.268,29.45,0,109.8,13.28,2.76,96.3
"2016-02-25 01:27:00",1404105,10.49,137.3,7.692,1.336,8.76,101.0523,1.984,3.273,29.5,0,109.8,13.29,2.74,99.3
"2016-02-25 01:27:30",1404106,11.29,127.8,6.654,1.206,9.16,101.0523,1.984,3.263,29.57,0,109.8,13.29,2.74,89.8
"2016-02-25 01:28:00",1404107,11.23,126.9,7.422,1.366,8.88,101.0523,1.984,3.265,29.62,0,109.8,13.29,2.74,88.9
"2016-02-25 01:28:30",1404108,11.79,124.5,7.417,1.297,9.33,101.05,1.978,3.248,29.72,0,109.8,13.29,2.74,86.5
"2016-02-25 01:29:00",1404109,11.38,126.8,6.835,1.316,8.79,101.0421,1.958,3.232,29.8,0,109.8,13.29,2.72,88.8
"2016-02-25 01:29:30",1404110,11.09,122.7,6.286,1.249,8.71,101.0359,1.942,3.215,29.87,0,109.8,13.29,2.70,84.7
"2016-02-25 01:30:00",1404111,11.07,123,6.855,1.264,9.05,101.0291,1.925,3.207,29.99,0,109.8,13.29,2.68,85.0
"2016-02-25 01:30:30",1404112,11.06,125.4,6.683,1.235,8.88,101.0197,1.901,3.22,30.07,0,109.8,13.29,2.66,87.4
"2016-02-25 01:31:00",1404113,11.31,124.6,7.206,1.347,8.58,101.0183,1.898,3.184,30.1,0,109.8,13.29,2.66,86.6
"2016-02-25 01:31:30",1404114,12.03,123.7,6.762,1.419,8.75,101.0186,1.898,3.207,30.21,0,109.8,13.29,2.66,85.7
"2016-02-25 01:32:00",1404115,10.1,124.4,8.03,1.424,8.6,101.0183,1.898,3.206,30.28,0,109.8,13.29,2.66,86.4
"2016-02-25 01:32:30",1404116,10.91,122.4,7.65,1.355,8.62,101.0183,1.898,3.161,30.32,0,109.8,13.29,2.66,84.4
"2016-02-25 01:33:00",1404117,10.36,129.6,6.623,1.488,8.49,101.0166,1.893,3.184,30.39,0,109.8,13.29,2.65,91.6
"2016-02-25 01:33:30",1404118,10.75,124.7,6.876,1.371,8.44,101.0059,1.866,3.155,30.43,0,109.8,13.29,2.62,86.7
"2016-02-25 01:34:00",1404119,11.31,120.1,7.196,1.439,8.45,100.9968,1.843,3.13,30.52,0,109.8,13.29,2.60,82.1
"2016-02-25 01:34:30",1404120,11.4,124.6,7.307,1.349,8.62,100.9881,1.82,3.126,30.62,0,109.8,13.29,2.58,86.6
"2016-02-25 01:35:00",1404121,10.48,127.4,8.58,1.475,8.62,100.9898,1.825,3.15,30.62,0,109.8,13.29,2.58,89.4
"2016-02-25 01:35:30",1404122,10.91,125.3,7.127,1.282,8.59,100.9875,1.819,3.104,30.68,0,109.8,13.29,2.58,87.3
"2016-02-25 01:36:00",1404123,11.78,121.8,7.584,1.361,8.28,100.9754,1.788,3.097,30.73,0,109.8,13.29,2.55,83.8
"2016-02-25 01:36:30",1404124,11.18,117.6,8.46,1.391,8.41,100.9672,1.767,3.078,30.82,0,109.8,13.29,2.53,79.6
"2016-02-25 01:37:00",1404125,10.46,121.9,6.778,1.39,8.6,100.959,1.746,3.066,30.86,0,109.7,13.28,2.50,83.9
"2016-02-25 01:37:30",1404126,10.78,123.5,7.18,1.45,8.58,100.9587,1.745,3.047,30.88,0,109.7,13.28,2.50,85.5
"2016-02-25 01:38:00",1404127,11.3,123.1,6.666,1.379,8.6,100.957,1.741,3.065,30.92,0,109.8,13.28,2.50,85.1
"2016-02-25 01:38:30",1404128,11.55,126.4,5.962,1.249,8.51,100.9418,1.702,3.043,30.95,0,109.8,13.28,2.46,88.4
"2016-02-25 01:39:00",1404129,11.49,123.9,6.209,1.323,8.28,100.9344,1.684,3.012,31,0,109.7,13.28,2.44,85.9
"2016-02-25 01:39:30",1404130,11.64,125.7,7.017,1.267,8.15,100.9322,1.678,2.961,31.07,0,109.7,13.28,2.44,87.7
"2016-02-25 01:40:00",1404131,11.93,124,6.23,1.246,8.44,100.9333,1.681,2.973,31.19,0,109.7,13.28,2.44,86.0
"2016-02-25 01:40:30",1404132,11.86,128.7,6.676,1.259,8.61,100.9314,1.676,2.957,31.28,0,109.8,13.28,2.43,90.7
"2016-02-25 01:41:00",1404133,11.07,126.7,7.753,1.254,8.51,100.9192,1.645,2.939,31.37,0,109.7,13.28,2.40,88.7
"2016-02-25 01:41:30",1404134,11.87,122.3,7.408,1.328,8.61,100.9059,1.611,2.96,31.5,0,109.7,13.29,2.37,84.3
"2016-02-25 01:42:00",1404135,12.6,116.5,6.606,1.252,8.47,100.9008,1.598,2.914,31.59,0,109.7,13.29,2.36,78.5
"2016-02-25 01:42:30",1404136,12.27,117.8,6.561,1.252,8.54,100.9022,1.601,2.894,31.68,0,109.7,13.29,2.36,79.8
"2016-02-25 01:43:00",1404137,12.79,116.5,7.037,1.43,8.8,100.8983,1.591,2.875,31.8,0,109.7,13.29,2.35,78.5
"2016-02-25 01:43:30",1404138,13.06,113,7.012,1.328,8.61,100.8878,1.565,2.867,31.94,0,109.7,13.29,2.32,75.0
"2016-02-25 01:44:00",1404139,13.61,114.1,6.853,1.14,9.03,100.8836,1.554,2.815,31.93,0,109.7,13.29,2.31,76.1
"2016-02-25 01:44:30",1404140,12.43,112.9,7.624,1.467,8.49,100.8771,1.537,2.838,31.91,0,109.7,13.29,2.29,74.9
"2016-02-25 01:45:00",1404141,13.71,109.7,6.887,1.406,8.57,100.8683,1.515,2.808,31.92,0,109.7,13.29,2.27,71.7
"2016-02-25 01:45:30",1404142,13.69,112.1,6.34,1.255,9.13,100.8677,1.513,2.804,31.9,0,109.7,13.29,2.27,74.1
"2016-02-25 01:46:00",1404143,13.99,110.5,6.511,1.274,9,100.8669,1.511,2.815,31.9,0,109.7,13.29,2.27,72.5
"2016-02-25 01:46:30",1404144,13.61,109.5,6.989,1.281,8.8,100.8674,1.513,2.758,31.81,0,109.7,13.29,2.27,71.5
"2016-02-25 01:47:00",1404145,13.5,111.4,6.275,1.19,9.29,100.8672,1.512,2.789,31.82,0,109.7,13.29,2.27,73.4
"2016-02-25 01:47:30",1404146,13.29,113.6,6.689,1.371,9.2,100.8677,1.513,2.793,31.74,0,109.7,13.3,2.27,75.6
"2016-02-25 01:48:00",1404147,13.62,113.1,6.85,1.356,9.1,100.8669,1.511,2.754,31.62,0,109.7,13.3,2.27,75.1
"2016-02-25 01:48:30",1404148,13.02,119,6.43,1.238,8.9,100.87,1.519,2.773,31.62,0,109.7,13.3,2.28,81.0
"2016-02-25 01:49:00",1404149,13.1,116.5,6.99,1.189,8.71,100.8691,1.517,2.751,31.49,0,109.7,13.3,2.27,78.5
"2016-02-25 01:49:30",1404150,12.83,120,7.418,1.238,8.66,100.8731,1.527,2.743,31.4,0,109.7,13.3,2.28,82.0